Weather History for Rolla, MO

Change the Weather History Date:

Saturday, July 6, 2013

  Actual Average Record
Temperature  
Mean Temperature 74 °F 77 °F  
Max Temperature 85 °F 87 °F 102 °F (2012)
Min Temperature 63 °F 66 °F 51 °F (1972)
Degree Days  
Heating Degree Days 0 0  
Month to date heating degree days 0 0  
Since 1 June heating degree days 17 14  
Since 1 July heating degree days 0 0  
Cooling Degree Days 9 12  
Month to date cooling degree days 30 68  
Year to date cooling degree days 354 410  
Since 1 June cooling degree days 247 303  
Growing Degree Days 24 (Base 50)    
Moisture  
Dew Point 64 °F    
Average Humidity 76    
Maximum Humidity 100    
Minimum Humidity 51    
Precipitation  
Precipitation T in 0.15 in 1.72 in (1993)
Month to date precipitation 0.98 0.85  
Year to date precipitation 26.07 22.29  
Sea Level Pressure  
Sea Level Pressure 29.99 in    
Wind  
Wind Speed 8 mph (South)    
Max Wind Speed 23 mph    
Max Gust Speed 32 mph    
Visibility 9 miles    
Events Rain , Thunderstorm    
T = Trace of Precipitation, MM = Missing Value Source: NWS Daily Summary

Daily Weather History Graph

Daily Weather History Graph

Search for Another Location

Airport:

Trip Planner

Search our weather history database for the weather conditions in past years. The results will help you decide how hot, cold, wet, or windy it might be!

Date:

Astronomy

Jul. 06, 2013 Rise Set
Actual Time 5:50 AM CDT 8:33 PM CDT
Civil Twilight 5:19 AM CDT 9:04 PM CDT
Nautical Twilight 4:40 AM CDT 9:43 PM CDT
Astronomical Twilight 3:56 AM CDT 10:26 PM CDT
Moon 4:35 AM CDT (7/6) 7:15 PM CDT (7/6)
Length of Visible Light 15h 44m
Length of Day
14h 42m
Waning Crescent, 2% of the Moon is Illuminated
Jul 6
Waning Crescent
Jul 8
New
Jul 15
First Quarter
Jul 22
Full
Jul 29
Last Quarter

Hourly Weather History & Observations

Time (CDT) Temp. Heat Index Dew Point Humidity Pressure Visibility Wind Dir Wind Speed Gust Speed Precip Events Conditions
12:53 AM 64.0 °F - 61.0 °F 90% 30.01 in 10.0 mi SE 6.9 mph - N/A   Clear
1:53 AM 64.0 °F - 62.1 °F 93% 29.99 in 9.0 mi South 5.8 mph - N/A   Clear
2:53 AM 63.0 °F - 62.1 °F 97% 29.99 in 6.0 mi SSE 5.8 mph - N/A   Clear
3:53 AM 63.0 °F - 62.1 °F 97% 29.99 in 5.0 mi South 6.9 mph - N/A   Clear
4:53 AM 66.0 °F - 64.0 °F 93% 30.00 in 5.0 mi South 8.1 mph - N/A   Clear
5:53 AM 64.9 °F - 64.0 °F 97% 30.01 in 5.0 mi SSE 6.9 mph - N/A   Clear
6:53 AM 66.0 °F - 64.0 °F 93% 30.01 in 5.0 mi South 5.8 mph - 0.01 in   Clear
7:53 AM 68.0 °F - 64.9 °F 90% 30.02 in 6.0 mi South 6.9 mph - N/A   Clear
8:53 AM 72.0 °F - 66.0 °F 81% 30.04 in 10.0 mi South 5.8 mph - N/A   Scattered Clouds
9:53 AM 77.0 °F - 68.0 °F 74% 30.02 in 10.0 mi South 8.1 mph - N/A   Partly Cloudy
10:53 AM 79.0 °F - 66.0 °F 64% 30.02 in 10.0 mi South 5.8 mph - N/A   Clear
11:53 AM 82.0 °F 84.1 °F 66.0 °F 58% 30.01 in 10.0 mi South 5.8 mph - N/A   Mostly Cloudy
12:53 PM 82.9 °F 85.4 °F 66.9 °F 58% 29.99 in 10.0 mi Variable 4.6 mph - N/A   Partly Cloudy
1:53 PM 84.0 °F 85.8 °F 64.9 °F 53% 29.97 in 10.0 mi SSW 4.6 mph - N/A   Clear
2:45 PM 82.4 °F 83.9 °F 64.4 °F 54% 30.00 in 10.0 mi WSW 4.6 mph - N/A Thunderstorm Thunderstorm
2:53 PM 80.1 °F 82.3 °F 66.9 °F 64% 29.97 in 8.0 mi SW 12.7 mph 23.0 mph 0.00 in Rain , Thunderstorm Light Thunderstorms and Rain
3:53 PM 73.0 °F - 61.0 °F 66% 29.98 in 10.0 mi SE 16.1 mph 21.9 mph 0.00 in Thunderstorm Thunderstorm
4:05 PM 73.4 °F - 62.6 °F 69% 29.99 in 10.0 mi SE 10.4 mph - N/A Thunderstorm Partly Cloudy
4:53 PM 75.0 °F - 63.0 °F 66% 29.97 in 10.0 mi South 10.4 mph - N/A   Clear
5:53 PM 71.1 °F - 62.1 °F 73% 29.98 in 8.0 mi South 8.1 mph - 0.00 in Rain Light Rain
6:53 PM 73.0 °F - 64.0 °F 73% 29.96 in 10.0 mi SE 8.1 mph - 0.00 in   Clear
7:53 PM 72.0 °F - 64.0 °F 76% 29.96 in 10.0 mi SSE 5.8 mph - N/A   Clear
8:53 PM 70.0 °F - 63.0 °F 78% 29.97 in 10.0 mi SSE 8.1 mph - N/A   Clear
9:53 PM 69.1 °F - 62.1 °F 78% 29.98 in 10.0 mi SSE 6.9 mph - N/A   Clear
10:53 PM 66.9 °F - 63.0 °F 87% 29.99 in 10.0 mi South 6.9 mph - N/A   Clear
11:53 PM 69.1 °F - 63.0 °F 81% 29.99 in 10.0 mi SSE 9.2 mph - N/A   Mostly Cloudy